CW0677 Weather Reports


Display with metric or nautical units.
time (UTC)temp
F
wind
direction
speed
MPH
gust
MPH
rain 1hr
in
rain 24hr
in
rain mn
in
humidity
%
barometer
mb
20260507010056 69 212 5.0 12.0 0.00 0.00 0.00 67 1018.2
20260507004558 70 244 4.0 11.0 0.00 0.00 0.00 65 1018.2
20260507003058 70 190 4.0 11.0 0.00 0.00 0.00 66 1018.1
20260507001603 70 177 4.0 12.0 0.00 0.00 0.00 65 1018.1
20260507000055 71 288 4.0 11.0 0.00 0.00 0.00 64 1018.1
20260506234617 72 221 3.0 12.0 0.00 0.00 0.00 64 1018.1
20260506233056 71 233 4.0 14.0 0.00 0.00 0.00 65 1018.3
20260506231556 71 192 5.0 13.0 0.00 0.00 0.00 65 1018.4
20260506230058 72 271 5.0 12.0 0.00 0.00 0.00 66 1018.6
20260506224557 71 258 6.0 13.0 0.00 0.00 0.00 66 1018.6
20260506223100 73 188 5.0 15.0 0.00 0.00 0.00 66 1018.7
20260506221603 72 196 5.0 11.0 0.00 0.00 0.00 66 1018.9
20260506220055 72 275 4.0 15.0 0.00 0.00 0.00 66 1018.9
20260506214555 72 183 3.0 11.0 0.00 0.00 0.00 67 1019.0
20260506213058 72 259 4.0 12.0 0.00 0.00 0.00 68 1019.1
20260506211605 72 217 5.0 11.0 0.00 0.00 0.00 67 1019.2
20260506210108 73 248 4.0 10.0 0.00 0.00 0.00 67 1019.3
20260506204559 72 154 3.0 11.0 0.00 0.00 0.00 67 1019.2
20260506203056 72 123 4.0 11.0 0.00 0.00 0.00 68 1019.4
20260506201559 72 270 3.0 10.0 0.00 0.00 0.00 68 1019.4
20260506200111 71 217 5.0 11.0 0.00 0.00 0.00 70 1019.5
20260506194622 71 183 3.0 9.0 0.00 0.00 0.00 69 1019.7
20260506193056 71 266 2.0 8.0 0.00 0.00 0.00 70 1020.1
20260506191557 70 282 3.0 8.0 0.00 0.00 0.00 71 1020.2
20260506184612 69 236 3.0 8.0 0.00 0.00 0.00 70 1020.4
20260506183107 69 275 2.0 6.0 0.00 0.00 0.00 71 1020.4
20260506181607 67 106 1.0 8.0 0.00 0.00 0.00 72 1020.5
20260506180113 68 180 3.0 7.0 0.00 0.00 0.00 71 1020.5
20260506174553 67 167 2.0 5.0 0.00 0.00 0.00 71 1020.5
20260506173112 65 209 1.0 4.0 0.00 0.00 0.00 74 1020.6
20260506171601 65 5 2.0 4.0 0.00 0.00 0.00 74 1020.6
20260506170056 63 0 1.0 4.0 0.00 0.00 0.00 76 1020.8
20260506164558 63 9 2.0 6.0 0.00 0.00 0.00 76 1020.8
20260506163057 61 25 1.0 5.0 0.00 0.00 0.00 79 1020.8
20260506161604 61 22 2.0 5.0 0.00 0.00 0.00 79 1020.9
20260506160057 60 238 0.0 3.0 0.00 0.00 0.00 80 1020.9
20260506154557 60 232 1.0 3.0 0.00 0.00 0.00 80 1020.9
20260506153058 59 0 0.0 2.0 0.00 0.00 0.00 82 1020.7
20260506151607 58 0 0.0 1.0 0.00 0.00 0.00 84 1020.8
20260506150054 57 108 1.0 3.0 0.00 0.00 0.00 85 1020.8
20260506144557 57 0 0.0 2.0 0.00 0.00 0.00 87 1020.7
20260506143105 56 92 1.0 2.0 0.00 0.00 0.00 88 1020.6
20260506141558 56 0 0.0 0.0 0.00 0.00 0.00 88 1020.5
20260506140104 55 0 0.0 2.0 0.00 0.00 0.00 88 1020.4
20260506134553 55 0 0.0 0.0 0.00 0.00 0.00 89 1020.3
20260506133058 55 0 0.0 1.0 0.00 0.00 0.00 89 1020.3
20260506131600 55 0 0.0 0.0 0.00 0.00 0.00 89 1020.2
20260506130118 55 0 0.0 0.0 0.00 0.00 0.00 89 1020.1
20260506124553 55 250 1.0 2.0 0.00 0.00 0.00 88 1020.0
20260506123054 55 0 0.0 2.0 0.00 0.00 0.00 88 1019.9
20260506121553 55 0 0.0 2.0 0.00 0.00 0.00 88 1019.9
20260506120052 55 0 0.0 2.0 0.00 0.00 0.00 88 1019.8
20260506114555 55 233 0.0 3.0 0.00 0.00 0.00 88 1019.6
20260506113104 55 0 0.0 3.0 0.00 0.00 0.00 88 1019.6
20260506111555 55 236 1.0 3.0 0.00 0.00 0.00 88 1019.6
20260506104614 55 230 0.0 4.0 0.00 0.00 0.00 88 1019.4
20260506103056 55 186 1.0 6.0 0.00 0.00 0.00 88 1019.2
20260506101603 55 167 0.0 4.0 0.00 0.00 0.00 87 1019.1
20260506100057 55 207 1.0 4.0 0.00 0.00 0.00 87 1019.1
20260506094559 55 227 0.0 3.0 0.00 0.02 0.00 87 1019.0
20260506093105 55 0 1.0 5.0 0.00 0.02 0.00 87 1019.0
20260506091558 55 238 1.0 5.0 0.00 0.02 0.00 87 1019.1
20260506090103 55 161 0.0 3.0 0.00 0.02 0.00 87 1019.2
20260506084556 55 0 1.0 3.0 0.00 0.07 0.00 87 1019.2
20260506083054 55 147 0.0 2.0 0.00 0.07 0.00 87 1019.3
20260506081552 55 194 0.0 4.0 0.00 0.07 0.00 87 1019.2
20260506073102 55 0 1.0 4.0 0.00 0.07 0.00 87 1018.7
20260506071609 56 0 1.0 5.0 0.00 0.07 0.00 87 1018.5
20260506070103 56 214 1.0 4.0 0.00 0.07 0.00 87 1018.4
20260506044601 56 140 2.0 7.0 0.00 0.20 0.07 86 1017.7
20260506043054 56 204 1.0 8.0 0.00 0.20 0.07 85 1017.4
20260506041605 57 181 1.0 6.0 0.00 0.20 0.07 85 1017.2
20260506040055 57 213 2.0 6.0 0.00 0.20 0.07 84 1017.1
20260506034556 57 248 2.0 13.0 0.00 0.21 0.07 83 1016.9
20260506033110 58 217 4.0 11.0 0.00 0.21 0.07 81 1016.5
20260506031558 59 229 2.0 10.0 0.00 0.21 0.07 79 1016.1
20260506030053 59 217 3.0 8.0 0.00 0.21 0.07 78 1016.0
20260506024555 60 163 2.0 7.0 0.00 0.28 0.07 76 1015.9
20260506023100 60 215 1.0 7.0 0.00 0.28 0.07 75 1015.9
20260506021557 61 209 2.0 7.0 0.00 0.28 0.07 74 1015.7
20260506020051 62 232 3.0 7.0 0.00 0.28 0.07 74 1015.5
20260506014557 62 258 3.0 8.0 0.00 0.35 0.07 72 1015.4
20260506013053 63 240 5.0 9.0 0.00 0.35 0.07 70 1015.4
20260506011552 64 223 3.0 9.0 0.00 0.35 0.07 70 1015.2